<?xml version="1.0"?>
<gpx xmlns="http://www.topografix.com/GPX/1/1" xmlns:xsi="http://www.w3.org/2001/XMLSchema-instance" version="1.1" creator="GPX RubyGem 1.0.0 -- http://dougfales.github.io/gpx/" xsi:schemaLocation="http://www.topografix.com/GPX/1/1 http://www.topografix.com/GPX/1/1/gpx.xsd">
  <metadata>
    <name/>
    <time>2026-05-08T07:35:08+00:00</time>
    <bound minlat="90.0" minlon="180.0" maxlat="-90.0" maxlon="-180.0"/>
  </metadata>
  <trk>
    <name/>
    <trkseg>
      <trkpt lat="46.967185" lon="7.384906">
        <time>1970-01-01T00:00:00+00:00</time>
        <ele>483.0</ele>
      </trkpt>
      <trkpt lat="46.96703" lon="7.384991">
        <time>1970-01-01T00:00:00+00:00</time>
        <ele>482.0</ele>
      </trkpt>
      <trkpt lat="46.966964" lon="7.384994">
        <time>1970-01-01T00:00:00+00:00</time>
        <ele>482.0</ele>
      </trkpt>
      <trkpt lat="46.966964" lon="7.385058">
        <time>1970-01-01T00:00:00+00:00</time>
        <ele>482.0</ele>
      </trkpt>
      <trkpt lat="46.966951" lon="7.385058">
        <time>1970-01-01T00:00:00+00:00</time>
        <ele>482.0</ele>
      </trkpt>
      <trkpt lat="46.966934" lon="7.385059">
        <time>1970-01-01T00:00:00+00:00</time>
        <ele>482.0</ele>
      </trkpt>
      <trkpt lat="46.966923" lon="7.385075">
        <time>1970-01-01T00:00:00+00:00</time>
        <ele>481.0</ele>
      </trkpt>
      <trkpt lat="46.966922" lon="7.385075">
        <time>1970-01-01T00:00:00+00:00</time>
        <ele>481.0</ele>
      </trkpt>
      <trkpt lat="46.966002" lon="7.385111">
        <time>1970-01-01T00:00:00+00:00</time>
        <ele>487.0</ele>
      </trkpt>
      <trkpt lat="46.966" lon="7.385111">
        <time>1970-01-01T00:00:00+00:00</time>
        <ele>487.0</ele>
      </trkpt>
      <trkpt lat="46.965925" lon="7.385126">
        <time>1970-01-01T00:00:00+00:00</time>
        <ele>490.0</ele>
      </trkpt>
      <trkpt lat="46.965892" lon="7.385112">
        <time>1970-01-01T00:00:00+00:00</time>
        <ele>490.0</ele>
      </trkpt>
      <trkpt lat="46.965578" lon="7.385209">
        <time>1970-01-01T00:00:00+00:00</time>
        <ele>493.0</ele>
      </trkpt>
      <trkpt lat="46.965471" lon="7.385287">
        <time>1970-01-01T00:00:00+00:00</time>
        <ele>492.0</ele>
      </trkpt>
      <trkpt lat="46.965325" lon="7.385488">
        <time>1970-01-01T00:00:00+00:00</time>
        <ele>493.0</ele>
      </trkpt>
      <trkpt lat="46.965259" lon="7.385611">
        <time>1970-01-01T00:00:00+00:00</time>
        <ele>493.0</ele>
      </trkpt>
      <trkpt lat="46.965103" lon="7.385977">
        <time>1970-01-01T00:00:00+00:00</time>
        <ele>495.0</ele>
      </trkpt>
      <trkpt lat="46.965083" lon="7.386009">
        <time>1970-01-01T00:00:00+00:00</time>
        <ele>495.0</ele>
      </trkpt>
      <trkpt lat="46.965024" lon="7.386033">
        <time>1970-01-01T00:00:00+00:00</time>
        <ele>495.0</ele>
      </trkpt>
      <trkpt lat="46.965051" lon="7.386371">
        <time>1970-01-01T00:00:00+00:00</time>
        <ele>500.0</ele>
      </trkpt>
      <trkpt lat="46.965051" lon="7.386658">
        <time>1970-01-01T00:00:00+00:00</time>
        <ele>504.0</ele>
      </trkpt>
      <trkpt lat="46.964968" lon="7.387998">
        <time>1970-01-01T00:00:00+00:00</time>
        <ele>508.0</ele>
      </trkpt>
      <trkpt lat="46.964916" lon="7.388826">
        <time>1970-01-01T00:00:00+00:00</time>
        <ele>506.0</ele>
      </trkpt>
      <trkpt lat="46.964908" lon="7.389294">
        <time>1970-01-01T00:00:00+00:00</time>
        <ele>505.0</ele>
      </trkpt>
      <trkpt lat="46.964983" lon="7.390079">
        <time>1970-01-01T00:00:00+00:00</time>
        <ele>509.0</ele>
      </trkpt>
      <trkpt lat="46.965083" lon="7.391122">
        <time>1970-01-01T00:00:00+00:00</time>
        <ele>524.0</ele>
      </trkpt>
      <trkpt lat="46.965147" lon="7.391661">
        <time>1970-01-01T00:00:00+00:00</time>
        <ele>527.0</ele>
      </trkpt>
      <trkpt lat="46.965212" lon="7.391985">
        <time>1970-01-01T00:00:00+00:00</time>
        <ele>527.0</ele>
      </trkpt>
      <trkpt lat="46.965402" lon="7.392692">
        <time>1970-01-01T00:00:00+00:00</time>
        <ele>524.0</ele>
      </trkpt>
      <trkpt lat="46.965496" lon="7.393292">
        <time>1970-01-01T00:00:00+00:00</time>
        <ele>520.0</ele>
      </trkpt>
      <trkpt lat="46.965596" lon="7.394444">
        <time>1970-01-01T00:00:00+00:00</time>
        <ele>515.0</ele>
      </trkpt>
      <trkpt lat="46.965763" lon="7.395216">
        <time>1970-01-01T00:00:00+00:00</time>
        <ele>514.0</ele>
      </trkpt>
      <trkpt lat="46.966048" lon="7.3961">
        <time>1970-01-01T00:00:00+00:00</time>
        <ele>517.0</ele>
      </trkpt>
      <trkpt lat="46.966082" lon="7.396302">
        <time>1970-01-01T00:00:00+00:00</time>
        <ele>516.0</ele>
      </trkpt>
      <trkpt lat="46.966083" lon="7.396589">
        <time>1970-01-01T00:00:00+00:00</time>
        <ele>514.0</ele>
      </trkpt>
      <trkpt lat="46.966079" lon="7.397206">
        <time>1970-01-01T00:00:00+00:00</time>
        <ele>514.0</ele>
      </trkpt>
      <trkpt lat="46.966116" lon="7.397839">
        <time>1970-01-01T00:00:00+00:00</time>
        <ele>515.0</ele>
      </trkpt>
      <trkpt lat="46.966221" lon="7.398682">
        <time>1970-01-01T00:00:00+00:00</time>
        <ele>517.0</ele>
      </trkpt>
      <trkpt lat="46.966312" lon="7.398953">
        <time>1970-01-01T00:00:00+00:00</time>
        <ele>517.0</ele>
      </trkpt>
      <trkpt lat="46.966372" lon="7.39881">
        <time>1970-01-01T00:00:00+00:00</time>
        <ele>515.0</ele>
      </trkpt>
      <trkpt lat="46.966726" lon="7.397721">
        <time>1970-01-01T00:00:00+00:00</time>
        <ele>505.0</ele>
      </trkpt>
      <trkpt lat="46.966773" lon="7.397609">
        <time>1970-01-01T00:00:00+00:00</time>
        <ele>503.0</ele>
      </trkpt>
      <trkpt lat="46.966847" lon="7.397531">
        <time>1970-01-01T00:00:00+00:00</time>
        <ele>501.0</ele>
      </trkpt>
      <trkpt lat="46.967205" lon="7.39746">
        <time>1970-01-01T00:00:00+00:00</time>
        <ele>493.0</ele>
      </trkpt>
      <trkpt lat="46.967281" lon="7.397604">
        <time>1970-01-01T00:00:00+00:00</time>
        <ele>492.0</ele>
      </trkpt>
      <trkpt lat="46.967378" lon="7.397591">
        <time>1970-01-01T00:00:00+00:00</time>
        <ele>490.0</ele>
      </trkpt>
      <trkpt lat="46.967378" lon="7.397591">
        <time>1970-01-01T00:00:00+00:00</time>
        <ele>490.0</ele>
      </trkpt>
      <trkpt lat="46.967281" lon="7.397604">
        <time>1970-01-01T00:00:00+00:00</time>
        <ele>492.0</ele>
      </trkpt>
      <trkpt lat="46.967205" lon="7.39746">
        <time>1970-01-01T00:00:00+00:00</time>
        <ele>493.0</ele>
      </trkpt>
      <trkpt lat="46.966847" lon="7.397531">
        <time>1970-01-01T00:00:00+00:00</time>
        <ele>501.0</ele>
      </trkpt>
      <trkpt lat="46.966773" lon="7.397609">
        <time>1970-01-01T00:00:00+00:00</time>
        <ele>503.0</ele>
      </trkpt>
      <trkpt lat="46.966726" lon="7.397721">
        <time>1970-01-01T00:00:00+00:00</time>
        <ele>505.0</ele>
      </trkpt>
      <trkpt lat="46.966372" lon="7.39881">
        <time>1970-01-01T00:00:00+00:00</time>
        <ele>515.0</ele>
      </trkpt>
      <trkpt lat="46.966312" lon="7.398953">
        <time>1970-01-01T00:00:00+00:00</time>
        <ele>517.0</ele>
      </trkpt>
      <trkpt lat="46.966221" lon="7.398682">
        <time>1970-01-01T00:00:00+00:00</time>
        <ele>517.0</ele>
      </trkpt>
      <trkpt lat="46.966116" lon="7.397839">
        <time>1970-01-01T00:00:00+00:00</time>
        <ele>515.0</ele>
      </trkpt>
      <trkpt lat="46.966079" lon="7.397206">
        <time>1970-01-01T00:00:00+00:00</time>
        <ele>514.0</ele>
      </trkpt>
      <trkpt lat="46.966083" lon="7.396589">
        <time>1970-01-01T00:00:00+00:00</time>
        <ele>514.0</ele>
      </trkpt>
      <trkpt lat="46.966082" lon="7.396302">
        <time>1970-01-01T00:00:00+00:00</time>
        <ele>516.0</ele>
      </trkpt>
      <trkpt lat="46.966048" lon="7.3961">
        <time>1970-01-01T00:00:00+00:00</time>
        <ele>517.0</ele>
      </trkpt>
      <trkpt lat="46.965763" lon="7.395216">
        <time>1970-01-01T00:00:00+00:00</time>
        <ele>514.0</ele>
      </trkpt>
      <trkpt lat="46.965596" lon="7.394444">
        <time>1970-01-01T00:00:00+00:00</time>
        <ele>515.0</ele>
      </trkpt>
      <trkpt lat="46.965496" lon="7.393292">
        <time>1970-01-01T00:00:00+00:00</time>
        <ele>520.0</ele>
      </trkpt>
      <trkpt lat="46.965402" lon="7.392692">
        <time>1970-01-01T00:00:00+00:00</time>
        <ele>524.0</ele>
      </trkpt>
      <trkpt lat="46.965212" lon="7.391985">
        <time>1970-01-01T00:00:00+00:00</time>
        <ele>527.0</ele>
      </trkpt>
      <trkpt lat="46.965147" lon="7.391661">
        <time>1970-01-01T00:00:00+00:00</time>
        <ele>527.0</ele>
      </trkpt>
      <trkpt lat="46.965083" lon="7.391122">
        <time>1970-01-01T00:00:00+00:00</time>
        <ele>524.0</ele>
      </trkpt>
      <trkpt lat="46.964983" lon="7.390079">
        <time>1970-01-01T00:00:00+00:00</time>
        <ele>509.0</ele>
      </trkpt>
      <trkpt lat="46.964908" lon="7.389294">
        <time>1970-01-01T00:00:00+00:00</time>
        <ele>505.0</ele>
      </trkpt>
      <trkpt lat="46.964916" lon="7.388826">
        <time>1970-01-01T00:00:00+00:00</time>
        <ele>506.0</ele>
      </trkpt>
      <trkpt lat="46.964968" lon="7.387998">
        <time>1970-01-01T00:00:00+00:00</time>
        <ele>508.0</ele>
      </trkpt>
      <trkpt lat="46.965051" lon="7.386658">
        <time>1970-01-01T00:00:00+00:00</time>
        <ele>504.0</ele>
      </trkpt>
      <trkpt lat="46.965051" lon="7.386371">
        <time>1970-01-01T00:00:00+00:00</time>
        <ele>500.0</ele>
      </trkpt>
      <trkpt lat="46.965024" lon="7.386033">
        <time>1970-01-01T00:00:00+00:00</time>
        <ele>495.0</ele>
      </trkpt>
      <trkpt lat="46.965083" lon="7.386009">
        <time>1970-01-01T00:00:00+00:00</time>
        <ele>495.0</ele>
      </trkpt>
      <trkpt lat="46.965103" lon="7.385977">
        <time>1970-01-01T00:00:00+00:00</time>
        <ele>495.0</ele>
      </trkpt>
      <trkpt lat="46.965259" lon="7.385611">
        <time>1970-01-01T00:00:00+00:00</time>
        <ele>493.0</ele>
      </trkpt>
      <trkpt lat="46.965325" lon="7.385488">
        <time>1970-01-01T00:00:00+00:00</time>
        <ele>493.0</ele>
      </trkpt>
      <trkpt lat="46.965471" lon="7.385287">
        <time>1970-01-01T00:00:00+00:00</time>
        <ele>492.0</ele>
      </trkpt>
      <trkpt lat="46.965578" lon="7.385209">
        <time>1970-01-01T00:00:00+00:00</time>
        <ele>493.0</ele>
      </trkpt>
      <trkpt lat="46.965892" lon="7.385112">
        <time>1970-01-01T00:00:00+00:00</time>
        <ele>490.0</ele>
      </trkpt>
      <trkpt lat="46.965925" lon="7.385126">
        <time>1970-01-01T00:00:00+00:00</time>
        <ele>490.0</ele>
      </trkpt>
      <trkpt lat="46.966" lon="7.385111">
        <time>1970-01-01T00:00:00+00:00</time>
        <ele>487.0</ele>
      </trkpt>
      <trkpt lat="46.966002" lon="7.385111">
        <time>1970-01-01T00:00:00+00:00</time>
        <ele>487.0</ele>
      </trkpt>
      <trkpt lat="46.966922" lon="7.385075">
        <time>1970-01-01T00:00:00+00:00</time>
        <ele>481.0</ele>
      </trkpt>
      <trkpt lat="46.966923" lon="7.385075">
        <time>1970-01-01T00:00:00+00:00</time>
        <ele>481.0</ele>
      </trkpt>
      <trkpt lat="46.966934" lon="7.385059">
        <time>1970-01-01T00:00:00+00:00</time>
        <ele>482.0</ele>
      </trkpt>
      <trkpt lat="46.966951" lon="7.385058">
        <time>1970-01-01T00:00:00+00:00</time>
        <ele>482.0</ele>
      </trkpt>
      <trkpt lat="46.966964" lon="7.385058">
        <time>1970-01-01T00:00:00+00:00</time>
        <ele>482.0</ele>
      </trkpt>
      <trkpt lat="46.966964" lon="7.384994">
        <time>1970-01-01T00:00:00+00:00</time>
        <ele>482.0</ele>
      </trkpt>
      <trkpt lat="46.96703" lon="7.384991">
        <time>1970-01-01T00:00:00+00:00</time>
        <ele>482.0</ele>
      </trkpt>
      <trkpt lat="46.967185" lon="7.384906">
        <time>1970-01-01T00:00:00+00:00</time>
        <ele>483.0</ele>
      </trkpt>
    </trkseg>
  </trk>
</gpx>
